BAW96E EGLL-EDDH

Flight info

Callsign BAW96E
Flight time 1h 0m
Altitude 39000
Route BPK Q295 SOMVA DCT MAVAS DCT ANDIK M105 RIBSO RIBSO7A
Aircraft A319/M-SDE3FGHIRWY/LB1

Departure

Time 2026-05-06 14:48
Airport London Heathrow Airport (EGLL)

Arrival

Time 2026-05-06 15:48
Airport Hamburg Helmut Schmidt Airport (EDDH)
Time Latitude Longitude Altitude Speed Heading
2026-05-06 14:29 51.47087 -0.48586 90 ft 0 kts 270°
2026-05-06 14:39 51.47087 -0.48580 90 ft 3 kts 270°
2026-05-06 14:39 51.47087 -0.48537 86 ft 4 kts 270°
2026-05-06 14:39 51.47088 -0.48503 86 ft 4 kts 252°
2026-05-06 14:40 51.47101 -0.48474 88 ft 4 kts 193°
2026-05-06 14:40 51.47124 -0.48472 87 ft 2 kts 180°
2026-05-06 14:40 51.47126 -0.48472 88 ft 0 kts 180°
2026-05-06 14:44 51.47112 -0.48472 90 ft 4 kts 180°
2026-05-06 14:44 51.47066 -0.48471 88 ft 9 kts 180°
2026-05-06 14:44 51.46992 -0.48471 86 ft 12 kts 179°
2026-05-06 14:45 51.46832 -0.48469 86 ft 4 kts 179°
2026-05-06 14:45 51.46823 -0.48469 86 ft 0 kts 179°
2026-05-06 14:45 51.46815 -0.48468 86 ft 4 kts 179°
2026-05-06 14:46 51.46768 -0.48467 86 ft 10 kts 179°
2026-05-06 14:46 51.46685 -0.48466 86 ft 14 kts 180°
2026-05-06 14:46 51.46574 -0.48466 87 ft 17 kts 180°
2026-05-06 14:46 51.46481 -0.48414 89 ft 11 kts 108°
2026-05-06 14:47 51.46480 -0.48373 87 ft 0 kts 89°
2026-05-06 14:47 51.46481 -0.48082 87 ft 58 kts 90°
2026-05-06 14:47 51.46484 -0.47094 89 ft 118 kts 89°
2026-05-06 14:47 51.46497 -0.45492 150 ft 163 kts 87°
2026-05-06 14:48 51.46509 -0.43662 801 ft 164 kts 85°
2026-05-06 14:48 51.46575 -0.41840 1495 ft 166 kts 74°
2026-05-06 14:48 51.47090 -0.40116 1906 ft 185 kts 49°
2026-05-06 14:48 51.47961 -0.38432 2338 ft 207 kts 47°
2026-05-06 14:49 51.48928 -0.36535 2857 ft 232 kts 49°
2026-05-06 14:49 51.49983 -0.34441 3670 ft 248 kts 49°
2026-05-06 14:49 51.51092 -0.32281 4754 ft 253 kts 44°
2026-05-06 14:49 51.52493 -0.30547 5847 ft 255 kts 32°
2026-05-06 14:50 51.53848 -0.29116 6797 ft 260 kts 31°
2026-05-06 14:50 51.55358 -0.27538 7756 ft 266 kts 31°
2026-05-06 14:50 51.56922 -0.25881 8744 ft 272 kts 31°
2026-05-06 14:50 51.58515 -0.24178 9662 ft 279 kts 31°
2026-05-06 14:51 51.60165 -0.22410 10388 ft 295 kts 31°
2026-05-06 14:51 51.61939 -0.20500 10733 ft 318 kts 31°
2026-05-06 14:51 51.63743 -0.18286 11262 ft 335 kts 44°
2026-05-06 14:51 51.65037 -0.15124 12011 ft 346 kts 65°
2026-05-06 14:52 51.65840 -0.11426 12834 ft 351 kts 70°
2026-05-06 14:52 51.66608 -0.07662 13633 ft 356 kts 70°
2026-05-06 14:52 51.67379 -0.03836 14136 ft 361 kts 70°
2026-05-06 14:52 51.68151 0.00017 14854 ft 363 kts 70°
2026-05-06 14:53 51.68936 0.03926 15504 ft 369 kts 70°
2026-05-06 14:53 51.69729 0.07877 16202 ft 373 kts 71°
2026-05-06 14:53 51.70533 0.11879 16918 ft 377 kts 71°
2026-05-06 14:53 51.71334 0.15876 17601 ft 381 kts 71°
2026-05-06 14:54 51.72154 0.19961 18309 ft 385 kts 71°
2026-05-06 14:54 51.72985 0.24092 18890 ft 390 kts 71°
2026-05-06 14:54 51.73821 0.28269 19520 ft 393 kts 71°
2026-05-06 14:54 51.74664 0.32493 20151 ft 397 kts 71°
2026-05-06 14:55 51.75512 0.36761 20773 ft 400 kts 71°
2026-05-06 14:55 51.76362 0.41057 21395 ft 404 kts 71°
2026-05-06 14:55 51.77221 0.45398 21987 ft 408 kts 71°
2026-05-06 14:55 51.78085 0.49765 22589 ft 411 kts 72°
2026-05-06 14:56 51.78960 0.54185 23155 ft 415 kts 72°
2026-05-06 14:56 51.79839 0.58644 23708 ft 418 kts 72°
2026-05-06 14:56 51.80722 0.63136 24162 ft 421 kts 72°
2026-05-06 14:56 51.81727 0.67539 24620 ft 424 kts 66°
2026-05-06 14:57 51.82876 0.71953 25069 ft 428 kts 66°
2026-05-06 14:57 51.84036 0.76413 25544 ft 430 kts 66°
2026-05-06 14:57 51.85197 0.80888 26010 ft 433 kts 66°
2026-05-06 14:57 51.86362 0.85398 26470 ft 436 kts 67°
2026-05-06 14:58 51.87530 0.89936 26951 ft 438 kts 67°
2026-05-06 14:58 51.88706 0.94520 27399 ft 441 kts 67°
2026-05-06 14:58 51.89888 0.99129 27878 ft 443 kts 67°
2026-05-06 14:58 51.91059 1.03700 28376 ft 445 kts 67°
2026-05-06 14:59 51.92245 1.08346 28826 ft 448 kts 67°
2026-05-06 14:59 51.93437 1.13023 29264 ft 450 kts 68°
2026-05-06 14:59 51.94636 1.17737 29690 ft 453 kts 68°
2026-05-06 14:59 51.95839 1.22472 30092 ft 456 kts 68°
2026-05-06 15:00 51.97049 1.27236 30436 ft 458 kts 68°
2026-05-06 15:00 51.98264 1.32030 30787 ft 461 kts 68°
2026-05-06 15:00 51.99482 1.36851 31132 ft 463 kts 68°
2026-05-06 15:00 52.00703 1.41690 31463 ft 465 kts 68°
2026-05-06 15:01 52.01926 1.46565 31863 ft 465 kts 68°
2026-05-06 15:01 52.03142 1.51421 32359 ft 463 kts 68°
2026-05-06 15:01 52.04341 1.56219 32830 ft 462 kts 68°
2026-05-06 15:01 52.05547 1.61053 33275 ft 462 kts 68°
2026-05-06 15:02 52.06760 1.65915 33756 ft 461 kts 67°
2026-05-06 15:02 52.07962 1.70741 34187 ft 460 kts 67°
2026-05-06 15:02 52.09161 1.75567 34571 ft 460 kts 68°
2026-05-06 15:02 52.10358 1.80399 34926 ft 460 kts 68°
2026-05-06 15:03 52.11551 1.85239 35287 ft 461 kts 68°
2026-05-06 15:03 52.12743 1.90086 35604 ft 461 kts 68°
2026-05-06 15:03 52.13933 1.94930 35929 ft 462 kts 68°
2026-05-06 15:03 52.15113 1.99732 36226 ft 463 kts 68°
2026-05-06 15:04 52.16306 2.04600 36524 ft 464 kts 68°
2026-05-06 15:04 52.17499 2.09483 36818 ft 464 kts 68°
2026-05-06 15:04 52.18691 2.14376 37121 ft 465 kts 68°
2026-05-06 15:04 52.19884 2.19282 37415 ft 465 kts 68°
2026-05-06 15:05 52.21074 2.24191 37705 ft 466 kts 69°
2026-05-06 15:05 52.22264 2.29109 37988 ft 466 kts 69°
2026-05-06 15:05 52.23456 2.34040 38268 ft 466 kts 69°
2026-05-06 15:05 52.24644 2.38960 38532 ft 467 kts 69°
2026-05-06 15:06 52.25835 2.43903 38749 ft 467 kts 69°
2026-05-06 15:06 52.27012 2.48796 38916 ft 469 kts 69°
2026-05-06 15:06 52.28199 2.53755 38961 ft 470 kts 69°
2026-05-06 15:07 52.30562 2.63717 38960 ft 470 kts 71°
2026-05-06 15:07 52.32421 2.73959 38961 ft 470 kts 75°
2026-05-06 15:08 52.34222 2.84236 38959 ft 470 kts 74°
2026-05-06 15:08 52.36013 2.94453 38961 ft 470 kts 75°
2026-05-06 15:09 52.37802 3.04741 38947 ft 470 kts 75°
2026-05-06 15:09 52.39577 3.15033 38950 ft 470 kts 75°
2026-05-06 15:10 52.41358 3.25347 38950 ft 470 kts 75°
2026-05-06 15:10 52.43124 3.35648 38955 ft 470 kts 75°
2026-05-06 15:11 52.46615 3.56304 38940 ft 470 kts 76°
2026-05-06 15:11 52.50091 3.77068 38935 ft 472 kts 76°
2026-05-06 15:12 52.53502 3.97716 38937 ft 472 kts 76°
2026-05-06 15:12 52.56912 4.18591 38941 ft 472 kts 76°
2026-05-06 15:13 52.60274 4.39451 38944 ft 472 kts 76°
2026-05-06 15:13 52.63596 4.60331 38938 ft 471 kts 76°
2026-05-06 15:14 52.66884 4.81241 38949 ft 471 kts 76°
2026-05-06 15:14 52.70150 5.02205 38917 ft 472 kts 77°
2026-05-06 15:15 52.73358 5.23198 38906 ft 472 kts 77°
2026-05-06 15:15 52.77571 5.43764 38912 ft 473 kts 71°
2026-05-06 15:16 52.81961 5.64273 38902 ft 473 kts 72°
2026-05-06 15:16 52.86306 5.84781 38911 ft 473 kts 72°
2026-05-06 15:17 52.88824 5.96724 38916 ft 473 kts 72°
2026-05-06 15:17 52.90967 6.06968 38917 ft 473 kts 72°
2026-05-06 15:18 52.93115 6.17268 38910 ft 473 kts 72°
2026-05-06 15:18 52.95253 6.27581 38912 ft 474 kts 72°
2026-05-06 15:19 52.97391 6.37945 38911 ft 474 kts 72°
2026-05-06 15:19 52.99509 6.48301 38917 ft 474 kts 72°
2026-05-06 15:20 53.01626 6.58673 38921 ft 474 kts 72°
2026-05-06 15:20 53.03732 6.69055 38891 ft 475 kts 72°
2026-05-06 15:20 53.04786 6.74265 38670 ft 475 kts 72°
2026-05-06 15:21 53.05839 6.79472 38414 ft 475 kts 72°
2026-05-06 15:21 53.06873 6.84602 38252 ft 471 kts 72°
2026-05-06 15:21 53.07909 6.89764 37677 ft 472 kts 73°
2026-05-06 15:21 53.08947 6.94963 37099 ft 471 kts 73°
2026-05-06 15:22 53.09975 7.00125 36535 ft 470 kts 73°
2026-05-06 15:22 53.10999 7.05296 35986 ft 468 kts 73°
2026-05-06 15:22 53.12014 7.10431 35432 ft 466 kts 73°
2026-05-06 15:22 53.13024 7.15544 34881 ft 465 kts 73°
2026-05-06 15:23 53.14034 7.20654 34596 ft 464 kts 73°
2026-05-06 15:23 53.15041 7.25760 34359 ft 464 kts 73°
2026-05-06 15:23 53.16044 7.30870 34123 ft 463 kts 73°
2026-05-06 15:23 53.17045 7.35980 33882 ft 462 kts 73°
2026-05-06 15:24 53.18027 7.41001 33601 ft 462 kts 73°
2026-05-06 15:24 53.19018 7.46087 33318 ft 462 kts 73°
2026-05-06 15:24 53.20008 7.51194 33038 ft 461 kts 73°
2026-05-06 15:24 53.20991 7.56288 32773 ft 461 kts 73°
2026-05-06 15:25 53.21972 7.61379 32492 ft 460 kts 73°
2026-05-06 15:25 53.22950 7.66452 32224 ft 458 kts 73°
2026-05-06 15:25 53.23926 7.71506 31955 ft 455 kts 73°
2026-05-06 15:25 53.24893 7.76525 31689 ft 451 kts 73°
2026-05-06 15:26 53.25843 7.81466 31230 ft 446 kts 73°
2026-05-06 15:26 53.26782 7.86380 30679 ft 442 kts 73°
2026-05-06 15:26 53.27709 7.91268 30130 ft 438 kts 73°
2026-05-06 15:26 53.28621 7.96099 29535 ft 434 kts 73°
2026-05-06 15:27 53.29513 8.00822 29006 ft 428 kts 73°
2026-05-06 15:27 53.30402 8.05538 28465 ft 423 kts 73°
2026-05-06 15:27 53.31277 8.10206 27940 ft 418 kts 73°
2026-05-06 15:27 53.32143 8.14823 27435 ft 414 kts 73°
2026-05-06 15:28 53.33038 8.19433 26901 ft 410 kts 71°
2026-05-06 15:28 53.33996 8.23848 26403 ft 406 kts 70°
2026-05-06 15:28 53.35020 8.28236 25906 ft 403 kts 69°
2026-05-06 15:28 53.36066 8.32578 25429 ft 400 kts 69°
2026-05-06 15:29 53.37105 8.36893 24958 ft 398 kts 69°
2026-05-06 15:29 53.38124 8.41187 24499 ft 396 kts 69°
2026-05-06 15:29 53.39112 8.45440 24047 ft 394 kts 69°
2026-05-06 15:29 53.40089 8.49712 23601 ft 391 kts 69°
2026-05-06 15:30 53.41097 8.53932 23127 ft 388 kts 67°
2026-05-06 15:30 53.42174 8.58047 22697 ft 383 kts 66°
2026-05-06 15:30 53.42907 8.60720 22411 ft 381 kts 65°
2026-05-06 15:30 53.43935 8.64824 21969 ft 384 kts 75°
2026-05-06 15:31 53.44215 8.69256 21541 ft 383 kts 96°
2026-05-06 15:31 53.43576 8.75042 21002 ft 381 kts 104°
2026-05-06 15:31 53.43003 8.79356 20584 ft 378 kts 104°
2026-05-06 15:32 53.42055 8.86517 19909 ft 373 kts 104°
2026-05-06 15:32 53.41500 8.90741 19515 ft 370 kts 104°
2026-05-06 15:32 53.40946 8.94933 19124 ft 368 kts 104°
2026-05-06 15:32 53.40401 8.99048 18748 ft 365 kts 104°
2026-05-06 15:33 53.39856 9.03197 18359 ft 363 kts 104°
2026-05-06 15:33 53.39316 9.07320 17920 ft 361 kts 104°
2026-05-06 15:33 53.38770 9.11415 17343 ft 358 kts 104°
2026-05-06 15:33 53.38235 9.15471 16789 ft 355 kts 104°
2026-05-06 15:34 53.37706 9.19501 16248 ft 352 kts 104°
2026-05-06 15:34 53.37165 9.23483 15707 ft 350 kts 104°
2026-05-06 15:34 53.36614 9.27427 15178 ft 346 kts 104°
2026-05-06 15:34 53.36075 9.31331 14648 ft 343 kts 104°
2026-05-06 15:35 53.35586 9.35230 14144 ft 341 kts 103°
2026-05-06 15:35 53.35535 9.39201 13632 ft 343 kts 82°
2026-05-06 15:35 53.36382 9.42916 13068 ft 345 kts 59°
2026-05-06 15:35 53.37773 9.46177 12523 ft 343 kts 54°
2026-05-06 15:36 53.39207 9.49339 11976 ft 339 kts 54°
2026-05-06 15:36 53.40639 9.52457 11440 ft 337 kts 54°
2026-05-06 15:36 53.42046 9.55537 10912 ft 337 kts 54°
2026-05-06 15:36 53.43470 9.58671 10400 ft 337 kts 54°
2026-05-06 15:37 53.44814 9.61881 9888 ft 336 kts 63°
2026-05-06 15:37 53.45464 9.65586 9336 ft 333 kts 85°
2026-05-06 15:37 53.45202 9.69401 8773 ft 331 kts 108°
2026-05-06 15:37 53.44062 9.72739 8224 ft 330 kts 130°
2026-05-06 15:38 53.42237 9.75030 7671 ft 330 kts 153°
2026-05-06 15:38 53.40006 9.75930 7138 ft 332 kts 176°
2026-05-06 15:38 53.37741 9.75288 6611 ft 333 kts 200°
2026-05-06 15:38 53.35809 9.73209 6089 ft 332 kts 224°
2026-05-06 15:39 53.34477 9.70084 5532 ft 330 kts 245°
2026-05-06 15:39 53.33968 9.66394 4998 ft 327 kts 270°
2026-05-06 15:39 53.34380 9.62708 4455 ft 321 kts 295°
2026-05-06 15:39 53.35628 9.59746 4084 ft 302 kts 321°
2026-05-06 15:40 53.37378 9.58127 3903 ft 277 kts 349°
2026-05-06 15:40 53.39201 9.58054 3713 ft 254 kts 16°
2026-05-06 15:40 53.40828 9.58948 3342 ft 247 kts 24°
2026-05-06 15:40 53.42419 9.59977 3032 ft 243 kts 24°
2026-05-06 15:41 53.43947 9.61047 3001 ft 232 kts 32°
2026-05-06 15:41 53.45108 9.62809 3006 ft 224 kts 51°
2026-05-06 15:41 53.46102 9.64804 3006 ft 220 kts 50°
2026-05-06 15:41 53.47069 9.66741 3003 ft 213 kts 50°
2026-05-06 15:42 53.47985 9.68570 3001 ft 197 kts 50°
2026-05-06 15:42 53.48860 9.70318 3003 ft 195 kts 51°
2026-05-06 15:42 53.49732 9.72063 3011 ft 194 kts 51°
2026-05-06 15:42 53.50597 9.73793 3005 ft 189 kts 51°
2026-05-06 15:43 53.51389 9.75376 2996 ft 165 kts 51°
2026-05-06 15:43 53.52098 9.76798 3039 ft 152 kts 51°
2026-05-06 15:43 53.52777 9.78160 2913 ft 150 kts 51°
2026-05-06 15:43 53.53438 9.79485 2741 ft 147 kts 51°
2026-05-06 15:44 53.54085 9.80785 2559 ft 140 kts 51°
2026-05-06 15:44 53.54665 9.81947 2382 ft 124 kts 51°
2026-05-06 15:44 53.55198 9.83020 2215 ft 119 kts 51°
2026-05-06 15:44 53.55728 9.84083 2056 ft 118 kts 51°
2026-05-06 15:45 53.56252 9.85138 1895 ft 117 kts 50°
2026-05-06 15:45 53.56770 9.86180 1736 ft 116 kts 50°
2026-05-06 15:45 53.57286 9.87219 1576 ft 116 kts 50°
2026-05-06 15:45 53.57804 9.88262 1417 ft 116 kts 50°
2026-05-06 15:46 53.58322 9.89304 1250 ft 117 kts 50°
2026-05-06 15:46 53.58840 9.90349 1072 ft 116 kts 50°
2026-05-06 15:46 53.59358 9.91392 905 ft 115 kts 51°
2026-05-06 15:46 53.59871 9.92426 743 ft 115 kts 50°
2026-05-06 15:47 53.60382 9.93458 586 ft 114 kts 49°
2026-05-06 15:47 53.60897 9.94510 410 ft 116 kts 50°
2026-05-06 15:47 53.61415 9.95558 290 ft 118 kts 51°
2026-05-06 15:47 53.61938 9.96604 125 ft 117 kts 50°
2026-05-06 15:48 53.62438 9.97608 53 ft 102 kts 50°
2026-05-06 15:48 53.62824 9.98385 53 ft 60 kts 50°
2026-05-06 15:48 53.63104 9.98968 53 ft 67 kts 49°
2026-05-06 15:48 53.63287 9.99418 52 ft 29 kts 83°
2026-05-06 15:49 53.63280 9.99611 51 ft 0 kts 99°
2026-05-06 15:49 53.63278 9.99627 51 ft 2 kts 99°
2026-05-06 15:49 53.63274 9.99666 51 ft 5 kts 99°
2026-05-06 15:49 53.63254 9.99731 51 ft 8 kts 139°
2026-05-06 15:50 53.63194 9.99786 51 ft 12 kts 153°
2026-05-06 15:50 53.63132 9.99841 51 ft 6 kts 155°
2026-05-06 15:50 53.63092 9.99873 51 ft 8 kts 155°
2026-05-06 15:50 53.63033 9.99923 51 ft 11 kts 151°
2026-05-06 15:51 53.62964 9.99990 50 ft 10 kts 140°
2026-05-06 15:51 53.62955 10.00109 51 ft 10 kts 85°
2026-05-06 15:51 53.62937 10.00233 48 ft 8 kts 107°
2026-05-06 15:51 53.62930 10.00270 51 ft 1 kts 108°
2026-05-06 15:52 53.62929 10.00274 51 ft 0 kts 108°